Other Surface Observations
Issued by NWS Charleston, SC

Home | Current Version | Previous Version | Text Only | Print | Product List | Glossary On
Versions: 1 2 3 4 5 6 7 8 9 10 11 12 13 14 15 16 17 18 19 20 21 22 23 24 25 26 27 28 29 30 31 32 33 34 35 36 37 38 39 40 41 42 43 44 45 46 47 48 49 50
000
SXUS52 KCHS 201310
OSOCHS

MARINE OBSERVATIONS
NATIONAL WEATHER SERVICE CHARLESTON SC
900 AM EDT SAT SEP 20 2014

...DOWNTOWN CHARLESTON AND HARBOR...

CITY           SKY/WX    TMP DP  RH WIND       PRES   REMARKS
WATERFRONT PRK NOT AVBL
FORT JOHNSON   NOT AVBL

...LAKE MOULTRIE...

CITY           SKY/WX    TMP DP  RH WIND       PRES   REMARKS
PINOPOLIS        N/A     70  64  83 NE16      30.00R

...LAKE AND SUPPLEMENTAL COASTAL OBSERVATIONS...

STATION/POSITION TIME  TEMP    WIND        PRES    WAVE   SWELL
                       AIR SEA DIR/SP/G            HT/PER HT/PER/DIR
                 (UTC) (F)     (DEG/KT/KT) (MB)    (FT/S) (FT/S/D)
FORT PULASKI     1300   74      10/ 14/ 17 1016.7R
SAPELO ISLAND    1200   72      80/  7     1016.0S
UPR LAKE MARION  NOT AVBL
WINYAH BAY       1200   69      20/  9     1018.0S
LAKE MURRAY      1200   66      20/  3/  7 1020.3S
ACE BASIN NERRS  1200   69      10/  3     1017.0S


...C-MAN AND BUOY OBSERVATIONS...

STATION/POSITION TIME  TEMP    WIND        PRES    WAVE   SWELL
                       AIR SEA DIR/SP/G            HT/PER HT/PER/DIR
                 (UTC) (F)     (DEG/KT/KT) (MB)    (FT/S) (FT/S/D)
BUOY 41004       1300   81 82   60/ 19/ 25 1015.1F   8/ 8   3/15
BUOY 41008       1300   77 83   80/ 16/ 19 1015.1R   6/ 8
FOLLY BEACH CMAN 1200   71      20/ 14/ 18 1017.6S
CAPERS NS BUOY   1200   73      40/ 19/ 23   N/A
FRIPP NS BUOY    NOT AVBL
5E ST. MARYS GA  1300      84                N/A     5/ 6
FRYING PAN BUOY  NOT AVBL
BUOY 41025       1300   79      80/ 21/ 25 1018.1F   7/ 8   3/ 60/ 8
CAPE LOOKOUT NC  1200   72      20/ 13/ 16 1019.2S
BUOY 41002       1213   74 82   60/ 12/ 16 1016.7F   7/ 7   7/ 50/ 7
BUOY 41010       1300   78 84  150/ 16/ 17 1012.3F   6/ 7   5/ 40/ 7
BUOY 41012       NOT AVBL
ST AUGUSTINE FL  1300   72     340/  7/ 10 1014.4F


$$



USA.gov is the U.S. government's official web portal to all federal, state and local government web resources and services.